[[{"header":{"parameterUnit":"m.s-1","parameterCategory":2,"la1":30.2991,"la2":30.254,"lo1":-89.0895,"lo2":-89.0444,"dy":0.0017,"dx":0.0017,"nx":28,"ny":28,"refTime":"2023-11-21T09:00:00:Z","depth":"0","parameterNumber":2,"parameterNumberName":"U-component_of_CURRENTS"},"data":[0,0,0,0,0,0,0,0,0,0,0,0,0,0,0,0,0,0,0,0,0,0,0,0,0,0,0,0,0,0,0,0,0,0,0,0,0,0,0,0,0,0,0,0,0,0,0,0,0,0,0,0,0,0,0,0,0,0,-0.2082,-0.2083,0,-0.2103,-0.2102,-0.2102,-0.2059,-0.2058,-0.2058,-0.2057,-0.1942,-0.194,-0.1937,0,0,0,0,0,0,0,0,0,0,0,0,0,-0.2029,-0.2029,-0.2082,-0.2083,-0.2084,-0.2103,-0.2102,-0.2102,-0.2059,-0.2058,-0.2057,-0.2057,-0.1943,-0.194,-0.1937,0,0,0,0,0,0,0,0,0,0,0,0,0,-0.2045,-0.2029,-0.2082,-0.207,-0.2069,-0.2103,-0.2102,-0.2102,-0.206,-0.2058,-0.2057,-0.2056,-0.1944,-0.194,-0.1937,-0.1939,0,0,-0.1926,-0.1925,0,0,0,0,0,0,0,0,-0.2044,-0.2046,-0.2071,-0.2071,-0.207,-0.2083,-0.2042,-0.2043,-0.206,-0.2056,-0.2057,-0.2055,-0.1982,-0.1975,-0.1974,-0.1934,-0.1929,-0.1926,-0.1924,-0.1922,-0.1921,0,0,0,0,0,0,0,-0.2043,-0.2045,-0.2084,-0.2072,-0.2072,-0.2071,-0.2071,-0.2042,-0.2018,-0.2057,-0.2055,-0.2068,-0.1979,-0.1978,-0.1971,-0.1927,-0.1926,-0.1923,-0.1921,-0.1919,-0.1972,-0.1975,0,0,0,0,0,0,-0.2054,-0.2044,-0.2083,-0.2085,-0.2061,-0.2074,-0.2073,-0.2075,-0.2021,-0.2015,-0.2069,-0.2066,-0.1984,-0.1975,-0.1967,-0.2055,-0.1922,-0.1919,-0.1917,-0.1968,-0.1972,-0.1976,0,0,0,0,0,0,-0.2052,-0.2056,-0.2082,-0.2071,-0.2075,-0.2076,-0.2078,-0.2076,-0.2079,-0.2034,-0.2023,-0.2076,-0.1983,-0.1971,-0.1967,-0.2046,-0.1917,-0.1914,-0.1964,-0.197,-0.1974,-0.2173,0,0,0,0,0,0,-0.205,-0.2055,-0.2051,-0.2071,-0.2076,-0.2135,-0.208,-0.2077,-0.2092,-0.2088,-0.2036,-0.2024,-0.1981,-0.1973,-0.1964,-0.2039,-0.1912,-0.196,-0.1967,-0.1973,-0.2162,-0.2185,-0.2204,0,0,0,0,0,-0.2048,-0.2063,-0.2051,-0.2056,-0.2073,-0.2138,-0.2141,-0.2133,-0.2094,-0.2124,-0.2082,-0.2026,-0.2009,-0.1973,-0.1961,-0.2037,-0.1957,-0.1965,-0.1972,-0.2153,-0.218,-0.2203,0,0,0,0,0,0,-0.2034,-0.2061,-0.2048,-0.2066,-0.2112,-0.2134,-0.2153,-0.2144,-0.2134,-0.2114,-0.2053,-0.2041,-0.2074,-0.2024,-0.1986,-0.2074,-0.198,-0.1986,-0.2122,-0.2147,-0.2167,-0.2133,-0.1909,0,0,0,0,0,-0.2032,-0.2042,-0.2085,-0.2098,-0.2126,-0.2137,-0.2154,-0.2157,-0.2158,-0.2152,-0.2127,-0.2098,-0.2099,-0.2095,-0.208,-0.2114,-0.2031,-0.2161,-0.2182,-0.22,-0.2166,-0.2145,-0.2159,-0.2002,-0.2002,-0.2002,0,0,-0.2021,-0.2043,-0.2043,-0.2096,-0.2118,-0.2187,-0.2143,-0.2189,-0.2235,-0.2139,-0.2182,-0.2162,-0.2122,-0.2175,-0.2186,-0.2141,-0.2205,-0.221,-0.2225,-0.218,-0.2154,-0.2169,-0.2182,-0.2007,-0.2006,-0.2005,0,0,-0.2048,-0.2041,-0.2078,-0.2133,-0.2193,-0.2215,-0.2237,-0.2282,-0.2291,-0.2335,-0.229,-0.2314,-0.2305,-0.2315,-0.2309,-0.2429,-0.2313,-0.2439,-0.2517,-0.25,-0.2511,-0.252,-0.2442,-0.2443,-0.2454,-0.2454,-0.2454,0,-0.2034,-0.2087,-0.2103,-0.2181,-0.2226,-0.2238,-0.2312,-0.2343,-0.238,-0.2384,-0.2371,-0.2385,-0.2375,-0.2424,-0.2485,-0.2477,-0.241,-0.243,-0.2525,-0.2532,-0.2537,-0.2455,-0.2453,-0.2465,-0.2463,-0.2462,-0.2461,0,-0.2117,-0.216,-0.2199,-0.2288,-0.2345,-0.2411,-0.2473,-0.2513,-0.2518,-0.2532,-0.2578,-0.2577,-0.2568,-0.2617,-0.2585,-0.2647,-0.2567,-0.2552,-0.2457,-0.2565,-0.2471,-0.2466,-0.248,-0.2476,-0.2473,-0.247,0,0,-0.2071,-0.2221,-0.2234,-0.2278,-0.2404,-0.2447,-0.2546,-0.2615,-0.2625,-0.2689,-0.2703,-0.278,-0.2744,-0.2735,-0.2728,-0.274,-0.2763,-0.267,-0.2664,-0.2581,-0.2665,-0.2614,-0.2601,-0.276,-0.276,-0.276,-0.2585,0,-0.2125,-0.2268,-0.2337,-0.2449,-0.2518,-0.2575,-0.2653,-0.2709,-0.2732,-0.2752,-0.2774,-0.2784,-0.2802,-0.2792,-0.2821,-0.2753,-0.2753,-0.2806,-0.2578,-0.2569,-0.2504,-0.2596,-0.2491,-0.2327,-0.2578,-0.2577,-0.2576,0,-0.2187,-0.2265,-0.2396,-0.2498,-0.2532,-0.2596,-0.2665,-0.2734,-0.2779,-0.2792,-0.2818,-0.2799,-0.283,-0.2826,-0.2778,-0.28,-0.2743,-0.2704,-0.2696,-0.256,-0.2509,-0.2258,-0.2304,-0.2305,-0.2565,-0.2566,-0.2567,0,-0.214,-0.2293,-0.2382,-0.2433,-0.2568,-0.2601,-0.2654,-0.2723,-0.2737,-0.2786,-0.2766,-0.2808,-0.2777,-0.2756,-0.2701,-0.2721,-0.2607,-0.2621,-0.2517,-0.2509,-0.2325,-0.2302,-0.2327,-0.2581,-0.2581,-0.2582,-0.2582,0,-0.2173,-0.223,-0.235,-0.2396,-0.2433,-0.2552,-0.2567,-0.2632,-0.2679,-0.2678,-0.2748,-0.2732,-0.2756,-0.2701,-0.2671,-0.256,-0.2579,-0.2515,-0.2474,-0.2394,-0.2381,-0.2293,-0.2313,-0.2575,-0.2577,-0.2578,-0.2579,0,-0.2119,-0.2224,-0.2286,-0.2398,-0.2413,-0.2426,-0.2476,-0.2489,-0.2559,-0.2552,-0.256,-0.2623,-0.2582,-0.2573,-0.2512,-0.2484,-0.2367,-0.2369,-0.225,-0.2202,-0.213,-0.2164,-0.207,-0.2015,-0.2215,-0.2213,-0.2211,0,-0.2119,-0.2155,-0.2227,-0.222,-0.2258,-0.2281,-0.2298,-0.2402,-0.2416,-0.2479,-0.2466,-0.2453,-0.2433,-0.2324,-0.2289,-0.2199,-0.2245,-0.2062,-0.2122,-0.2108,-0.2116,-0.2153,-0.2118,-0.1939,-0.1935,-0.1932,-0.193,0,-0.206,-0.2075,-0.2102,-0.209,-0.2094,-0.2102,-0.2137,-0.2134,-0.2261,-0.2271,-0.2293,-0.2282,-0.2219,-0.2121,-0.204,-0.1988,-0.2027,-0.1995,-0.2015,-0.1933,-0.1934,-0.1866,-0.2042,-0.1902,-0.1905,-0.1907,-0.1908,-0.1909,-0.1957,-0.1938,-0.195,-0.1916,-0.1923,-0.1919,-0.188,-0.1945,-0.1955,-0.1957,-0.2069,-0.1995,-0.1999,-0.188,-0.184,-0.1743,-0.1806,-0.1706,-0.1747,-0.1786,-0.1759,-0.1864,-0.1681,-0.1683,-0.1684,-0.1685,-0.1686,0,-0.1817,-0.1805,-0.1775,-0.1736,-0.1687,-0.1746,-0.1763,-0.1712,-0.1689,-0.1709,-0.1707,-0.1672,-0.1616,-0.1625,-0.1574,-0.1515,-0.1502,-0.1501,-0.1531,-0.1506,-0.1599,-0.1617,-0.1372,-0.1373,-0.1373,-0.1373,-0.1373,-0.1373,-0.1735,-0.1666,-0.165,-0.1503,-0.1476,-0.1381,-0.1365,-0.1332,-0.1305,-0.1209,-0.1161,-0.1151,-0.1273,-0.151,-0.1494,-0.1439,-0.1438,-0.1382,-0.1436,-0.1524,-0.1548,-0.157,-0.1595,-0.135,-0.135,-0.1277,-0.1277,-0.1277]},{"header":{"parameterUnit":"m.s-1","parameterCategory":2,"la1":30.2991,"la2":30.254,"lo1":-89.0895,"lo2":-89.0444,"dy":0.0017,"dx":0.0017,"nx":28,"ny":28,"refTime":"2023-11-21T09:00:00:Z","depth":"0","parameterNumber":3,"parameterNumberName":"V-component_of_CURRENTS"},"data":[0,0,0,0,0,0,0,0,0,0,0,0,0,0,0,0,0,0,0,0,0,0,0,0,0,0,0,0,0,0,0,0,0,0,0,0,0,0,0,0,0,0,0,0,0,0,0,0,0,0,0,0,0,0,0,0,0,0,0.0386,0.0387,0,0.0512,0.0514,0.0515,0.0555,0.0555,0.0554,0.0554,0.0695,0.0699,0.0703,0,0,0,0,0,0,0,0,0,0,0,0,0,0.0253,0.0255,0.0385,0.0387,0.0389,0.0512,0.0514,0.0515,0.0555,0.0554,0.0554,0.0554,0.0694,0.0698,0.0703,0,0,0,0,0,0,0,0,0,0,0,0,0,0.0336,0.0255,0.0385,0.0426,0.0431,0.0512,0.0514,0.0516,0.0555,0.0554,0.0554,0.0553,0.0692,0.0698,0.0704,0.0752,0,0,0.0723,0.0725,0,0,0,0,0,0,0,0,0.0331,0.034,0.0418,0.0423,0.0429,0.052,0.0519,0.0596,0.0555,0.0505,0.0554,0.0553,0.064,0.065,0.0671,0.0759,0.0765,0.0723,0.0727,0.073,0.0731,0,0,0,0,0,0,0,0.0325,0.0335,0.0433,0.042,0.0427,0.0464,0.0474,0.0534,0.0572,0.0509,0.0513,0.0532,0.0643,0.0665,0.0675,0.0767,0.0723,0.0728,0.0732,0.0735,0.092,0.0922,0,0,0,0,0,0,0.0312,0.033,0.0429,0.0437,0.0381,0.0467,0.0478,0.0489,0.0571,0.0584,0.0532,0.0533,0.0655,0.0668,0.068,0.0727,0.0729,0.0735,0.0739,0.0919,0.0921,0.0922,0,0,0,0,0,0,0.0308,0.0319,0.0424,0.0389,0.0405,0.0469,0.0482,0.0492,0.0515,0.0589,0.0601,0.0545,0.0655,0.0671,0.0751,0.0733,0.0738,0.0744,0.0918,0.092,0.0921,0.0831,0,0,0,0,0,0,0.0304,0.0317,0.0314,0.0388,0.0407,0.0468,0.0483,0.0495,0.0528,0.0531,0.0604,0.0616,0.0656,0.0742,0.0757,0.0742,0.0748,0.0916,0.0919,0.0921,0.0832,0.0829,0.0827,0,0,0,0,0,0.0299,0.0292,0.0312,0.0325,0.0402,0.0469,0.0482,0.0524,0.0529,0.0542,0.0604,0.0614,0.0767,0.0749,0.0766,0.0752,0.0915,0.0918,0.0921,0.0833,0.083,0.0827,0,0,0,0,0,0,0.0234,0.0298,0.0322,0.0335,0.0398,0.0477,0.0489,0.0523,0.0581,0.0578,0.0644,0.0663,0.0723,0.0765,0.0743,0.0817,0.0837,0.0844,0.0765,0.0762,0.076,0.0723,0.0753,0,0,0,0,0,0.0219,0.0232,0.0309,0.0324,0.0348,0.0419,0.0449,0.0481,0.0546,0.0569,0.0628,0.069,0.075,0.0778,0.0842,0.0888,0.0909,0.089,0.0887,0.0884,0.087,0.0911,0.0909,0.0931,0.0931,0.0931,0,0,0.0204,0.0239,0.0249,0.0312,0.0358,0.0378,0.0434,0.0475,0.049,0.0577,0.0618,0.0691,0.0767,0.0817,0.0845,0.0846,0.0888,0.0888,0.0884,0.0872,0.0914,0.0911,0.0909,0.0933,0.0933,0.0933,0,0,0.0165,0.0206,0.0195,0.0237,0.03,0.035,0.0359,0.044,0.0473,0.0537,0.0597,0.0666,0.0759,0.0805,0.0839,0.0866,0.0881,0.0884,0.0826,0.0866,0.0863,0.0861,0.0862,0.0861,0.087,0.087,0.087,0,0.0138,0.013,0.0207,0.0203,0.0225,0.0328,0.032,0.0376,0.0474,0.0501,0.0535,0.068,0.0745,0.0797,0.0806,0.0853,0.087,0.0822,0.0857,0.0856,0.0855,0.0857,0.0857,0.0866,0.0866,0.0867,0.0867,0,0.0092,0.0079,0.0079,0.0103,0.0149,0.0161,0.025,0.0297,0.0356,0.0411,0.0495,0.0606,0.0681,0.0717,0.0769,0.0798,0.0809,0.0852,0.0849,0.0846,0.085,0.0851,0.086,0.0861,0.0863,0.0864,0,0,0.0048,0.0037,0.0039,0.0014,0.0087,0.0118,0.0158,0.0221,0.0241,0.0346,0.0375,0.0497,0.0561,0.0607,0.0689,0.073,0.0741,0.0778,0.0782,0.0749,0.0798,0.0868,0.0876,0.0788,0.0788,0.0789,0.0792,0,-0.0019,-0.0095,-0.0047,-0.0084,-0.0118,-0.001,0.0023,0.0101,0.0187,0.025,0.0364,0.0435,0.0516,0.0559,0.0611,0.0729,0.0744,0.0734,0.0832,0.0833,0.0873,0.0881,0.0966,0.0983,0.0793,0.0794,0.0794,0,-0.0076,-0.0132,-0.0215,-0.0218,-0.021,-0.0195,-0.012,-0.0075,0.0045,0.0114,0.0204,0.0309,0.0401,0.0474,0.0616,0.0606,0.0678,0.0759,0.0761,0.0859,0.0908,0.0966,0.0993,0.1171,0.0796,0.0796,0.0796,0,-0.0181,-0.0227,-0.0313,-0.0317,-0.0301,-0.0291,-0.0247,-0.0134,-0.0088,0.0024,0.0076,0.0202,0.0278,0.0395,0.0579,0.0588,0.0732,0.0764,0.0879,0.0883,0.0991,0.1006,0.1181,0.0826,0.0826,0.0826,0.0826,0,-0.0278,-0.0334,-0.0378,-0.0433,-0.0476,-0.0407,-0.0397,-0.0321,-0.0219,-0.0162,-0.0014,0.0072,0.0267,0.0396,0.0534,0.072,0.0689,0.0863,0.0898,0.0963,0.0974,0.1165,0.1215,0.0826,0.0826,0.0826,0.0826,0,-0.037,-0.041,-0.0514,-0.0549,-0.0544,-0.057,-0.0494,-0.0472,-0.0363,-0.0283,-0.0251,-0.0042,0.015,0.0342,0.0547,0.0669,0.0942,0.0895,0.0945,0.0987,0.1266,0.1306,0.1434,0.1535,0.1007,0.1009,0.1011,0,-0.0425,-0.0513,-0.0612,-0.0651,-0.0668,-0.068,-0.0664,-0.0562,-0.0516,-0.0329,-0.0293,-0.0092,0.0111,0.0433,0.0688,0.0919,0.1026,0.109,0.1136,0.1295,0.1365,0.1358,0.1434,0.1225,0.1229,0.1231,0.1233,0,-0.0534,-0.0583,-0.0667,-0.0771,-0.0795,-0.0805,-0.0774,-0.0759,-0.0612,-0.0498,-0.0295,-0.0118,0.0242,0.0607,0.0901,0.1037,0.1233,0.1151,0.1322,0.1555,0.1553,0.1664,0.1175,0.1257,0.1255,0.1253,0.1252,0.1251,-0.0587,-0.067,-0.0783,-0.0858,-0.0894,-0.0903,-0.0887,-0.0798,-0.0697,-0.0447,-0.0305,0.0078,0.0564,0.1043,0.1186,0.1537,0.144,0.1646,0.1675,0.1647,0.1783,0.1329,0.146,0.1458,0.1457,0.1457,0.1456,0,-0.0625,-0.0726,-0.0835,-0.0928,-0.0971,-0.0961,-0.0923,-0.0832,-0.0675,-0.0381,-0.0115,0.0558,0.1037,0.1446,0.1909,0.2074,0.2081,0.2136,0.217,0.2219,0.1843,0.19,0.2127,0.2127,0.2127,0.2126,0.2126,0.2126,-0.0648,-0.0766,-0.0843,-0.0955,-0.1006,-0.1007,-0.0976,-0.078,-0.0545,-0.0028,0.0431,0.0788,0.1381,0.21,0.2533,0.2546,0.2686,0.2626,0.269,0.2472,0.2429,0.2388,0.2459,0.28,0.28,0.3085,0.3088,0.3091]}],[{"header":{"parameterUnit":"m.s-1","parameterCategory":2,"la1":30.2991,"la2":30.254,"lo1":-89.0895,"lo2":-89.0444,"dy":0.0017,"dx":0.0017,"nx":28,"ny":28,"refTime":"2023-11-21T09:00:00:Z","depth":"2","parameterNumber":2,"parameterNumberName":"U-component_of_CURRENTS"},"data":[0,0,0,0,0,0,0,0,0,0,0,0,0,0,0,0,0,0,0,0,0,0,0,0,0,0,0,0,0,0,0,0,0,0,0,0,0,0,0,0,0,0,0,0,0,0,0,0,0,0,0,0,0,0,0,0,0,0,-0.2051,-0.2052,0,-0.2074,-0.2074,-0.2074,-0.2035,-0.2034,-0.2033,-0.2033,-0.1922,-0.192,-0.1918,0,0,0,0,0,0,0,0,0,0,0,0,0,-0.2003,-0.2004,-0.2051,-0.2052,-0.2053,-0.2074,-0.2074,-0.2074,-0.2035,-0.2034,-0.2033,-0.2032,-0.1923,-0.192,-0.1917,0,0,0,0,0,0,0,0,0,0,0,0,0,-0.202,-0.2004,-0.2051,-0.204,-0.204,-0.2074,-0.2074,-0.2074,-0.2035,-0.2034,-0.2033,-0.2032,-0.1923,-0.192,-0.1917,-0.192,0,0,-0.1907,-0.1905,0,0,0,0,0,0,0,0,-0.2019,-0.2021,-0.2041,-0.2041,-0.2041,-0.2055,-0.2017,-0.2018,-0.2036,-0.2031,-0.2033,-0.2031,-0.1959,-0.1952,-0.1953,-0.1915,-0.191,-0.1907,-0.1905,-0.1903,-0.1902,0,0,0,0,0,0,0,-0.2017,-0.202,-0.2054,-0.2042,-0.2042,-0.2045,-0.2045,-0.2017,-0.1994,-0.2031,-0.203,-0.2042,-0.1957,-0.1957,-0.195,-0.1909,-0.1907,-0.1904,-0.1902,-0.19,-0.1951,-0.1955,0,0,0,0,0,0,-0.2026,-0.2019,-0.2054,-0.2056,-0.2033,-0.2047,-0.2047,-0.2047,-0.1998,-0.1992,-0.2043,-0.204,-0.1963,-0.1954,-0.1946,-0.2029,-0.1903,-0.19,-0.1898,-0.1948,-0.1952,-0.1956,0,0,0,0,0,0,-0.2025,-0.2028,-0.2053,-0.2043,-0.2047,-0.2049,-0.205,-0.2049,-0.2053,-0.2009,-0.1999,-0.205,-0.1962,-0.1951,-0.1945,-0.202,-0.1899,-0.1896,-0.1944,-0.1949,-0.1954,-0.2141,0,0,0,0,0,0,-0.2023,-0.2027,-0.2023,-0.2043,-0.2048,-0.21,-0.2052,-0.205,-0.2065,-0.2061,-0.2012,-0.2,-0.196,-0.1951,-0.1942,-0.2014,-0.1893,-0.194,-0.1947,-0.1952,-0.2131,-0.2152,-0.217,0,0,0,0,0,-0.2021,-0.2031,-0.2022,-0.2027,-0.2044,-0.2103,-0.2106,-0.2099,-0.2066,-0.2092,-0.2055,-0.2002,-0.1985,-0.195,-0.1939,-0.2012,-0.1937,-0.1945,-0.1952,-0.2122,-0.2148,-0.217,0,0,0,0,0,0,-0.2005,-0.203,-0.202,-0.2034,-0.2076,-0.2099,-0.2116,-0.2109,-0.2101,-0.2084,-0.2027,-0.2016,-0.2047,-0.2,-0.1963,-0.2048,-0.196,-0.1965,-0.2093,-0.2116,-0.2136,-0.2104,-0.189,0,0,0,0,0,-0.2002,-0.2011,-0.2051,-0.2061,-0.2087,-0.21,-0.2116,-0.2121,-0.2123,-0.2118,-0.2095,-0.207,-0.2072,-0.2067,-0.2055,-0.2085,-0.2007,-0.2131,-0.2151,-0.2168,-0.2137,-0.2118,-0.2132,-0.1981,-0.198,-0.198,0,0,-0.1992,-0.2012,-0.2011,-0.2059,-0.2081,-0.2145,-0.2106,-0.2149,-0.2194,-0.2105,-0.2148,-0.2131,-0.2094,-0.2145,-0.2155,-0.2112,-0.2173,-0.2177,-0.2192,-0.2151,-0.2127,-0.2142,-0.2154,-0.1986,-0.1985,-0.1984,0,0,-0.2014,-0.2008,-0.204,-0.2092,-0.2149,-0.217,-0.219,-0.2235,-0.2246,-0.2288,-0.225,-0.2274,-0.2266,-0.2276,-0.2271,-0.2386,-0.2277,-0.2397,-0.247,-0.2455,-0.2466,-0.2475,-0.2399,-0.2399,-0.2409,-0.241,-0.241,0,-0.2001,-0.2049,-0.2063,-0.2134,-0.2178,-0.2191,-0.226,-0.229,-0.2327,-0.2335,-0.2322,-0.2342,-0.2332,-0.2381,-0.2439,-0.2431,-0.2369,-0.2387,-0.2479,-0.2486,-0.2491,-0.241,-0.2408,-0.242,-0.2419,-0.2418,-0.2417,0,-0.2077,-0.2116,-0.2151,-0.2234,-0.2286,-0.2349,-0.2408,-0.245,-0.2458,-0.2473,-0.2521,-0.252,-0.2515,-0.2562,-0.2532,-0.2594,-0.2519,-0.2506,-0.2414,-0.2518,-0.2426,-0.2421,-0.2434,-0.243,-0.2427,-0.2425,0,0,-0.2033,-0.2172,-0.2185,-0.2226,-0.2343,-0.2383,-0.2479,-0.2548,-0.2563,-0.2624,-0.2641,-0.2715,-0.2684,-0.2675,-0.267,-0.2682,-0.2704,-0.2618,-0.2613,-0.253,-0.2613,-0.2562,-0.2549,-0.2704,-0.2705,-0.2705,-0.2533,0,-0.2084,-0.2219,-0.2282,-0.2385,-0.2448,-0.2507,-0.2582,-0.264,-0.2664,-0.2687,-0.271,-0.272,-0.2737,-0.2731,-0.2758,-0.2696,-0.2695,-0.2746,-0.2531,-0.2522,-0.2457,-0.2545,-0.235,-0.2182,-0.2527,-0.2526,-0.2525,0,-0.2138,-0.2214,-0.2339,-0.2433,-0.2465,-0.2525,-0.26,-0.2667,-0.2715,-0.2732,-0.2759,-0.2741,-0.2771,-0.2766,-0.2721,-0.2744,-0.2688,-0.2651,-0.2644,-0.2513,-0.2462,-0.2134,-0.2157,-0.2514,-0.2515,-0.2515,-0.2516,0,-0.2091,-0.2236,-0.2323,-0.2372,-0.25,-0.2537,-0.2589,-0.2661,-0.2676,-0.2729,-0.2712,-0.2753,-0.2723,-0.2705,-0.2649,-0.267,-0.256,-0.2573,-0.247,-0.2462,-0.2208,-0.2179,-0.2536,-0.2536,-0.2536,-0.2537,-0.2537,0,-0.2109,-0.2164,-0.2294,-0.2339,-0.2378,-0.2491,-0.251,-0.2579,-0.2628,-0.2627,-0.2696,-0.2681,-0.2705,-0.2651,-0.2622,-0.2513,-0.2534,-0.2468,-0.2428,-0.2271,-0.2251,-0.2464,-0.2459,-0.253,-0.2532,-0.2533,-0.2534,0,-0.2037,-0.2146,-0.2215,-0.2339,-0.2355,-0.2372,-0.2423,-0.2439,-0.2511,-0.2506,-0.2515,-0.2577,-0.2537,-0.2527,-0.2468,-0.244,-0.237,-0.2327,-0.2118,-0.2061,-0.2277,-0.2283,-0.218,-0.2177,-0.2175,-0.2173,-0.2171,0,-0.2036,-0.2072,-0.2165,-0.2164,-0.2205,-0.2232,-0.2252,-0.2356,-0.2372,-0.2435,-0.2423,-0.241,-0.2387,-0.228,-0.2228,-0.2135,-0.2258,-0.193,-0.1976,-0.2275,-0.2247,-0.2257,-0.2266,-0.169,-0.1685,-0.168,-0.1677,0,-0.198,-0.2002,-0.2034,-0.2037,-0.2047,-0.2057,-0.2095,-0.2094,-0.222,-0.2227,-0.225,-0.2236,-0.2159,-0.2005,-0.1916,-0.1858,-0.1944,-0.1838,-0.2173,-0.185,-0.1811,-0.1785,-0.181,-0.1636,-0.164,-0.1643,-0.1646,-0.1647,-0.1898,-0.1877,-0.1898,-0.1869,-0.1884,-0.188,-0.1843,-0.1895,-0.1899,-0.1883,-0.2,-0.1888,-0.1904,-0.1646,-0.1588,-0.153,-0.1669,-0.1612,-0.1626,-0.1644,-0.1658,-0.1622,-0.1408,-0.1411,-0.1413,-0.1415,-0.1417,0,-0.1786,-0.1753,-0.1729,-0.1698,-0.1646,-0.1713,-0.173,-0.1655,-0.1609,-0.1619,-0.1591,-0.1406,-0.1301,-0.1314,-0.1149,-0.1165,-0.1158,-0.1146,-0.1127,-0.1166,-0.12,-0.1194,-0.0819,-0.0818,-0.0817,-0.0816,0,0,-0.1709,-0.1637,-0.1608,-0.1458,-0.1438,-0.1332,-0.1316,-0.1241,-0.1195,-0.1088,-0.1015,-0.1088,-0.1178,-0.0948,-0.0956,-0.0849,-0.0991,-0.0807,-0.1273,-0.128,-0.1313,-0.1446,-0.1478,0,0,0,0,0]},{"header":{"parameterUnit":"m.s-1","parameterCategory":2,"la1":30.2991,"la2":30.254,"lo1":-89.0895,"lo2":-89.0444,"dy":0.0017,"dx":0.0017,"nx":28,"ny":28,"refTime":"2023-11-21T09:00:00:Z","depth":"2","parameterNumber":3,"parameterNumberName":"V-component_of_CURRENTS"},"data":[0,0,0,0,0,0,0,0,0,0,0,0,0,0,0,0,0,0,0,0,0,0,0,0,0,0,0,0,0,0,0,0,0,0,0,0,0,0,0,0,0,0,0,0,0,0,0,0,0,0,0,0,0,0,0,0,0,0,0.0289,0.029,0,0.041,0.0411,0.0412,0.0459,0.0459,0.0459,0.0459,0.0606,0.061,0.0614,0,0,0,0,0,0,0,0,0,0,0,0,0,0.0173,0.0174,0.0289,0.029,0.0292,0.041,0.0411,0.0413,0.0459,0.0459,0.0459,0.0459,0.0605,0.0609,0.0614,0,0,0,0,0,0,0,0,0,0,0,0,0,0.0249,0.0175,0.0288,0.0331,0.0336,0.0409,0.0411,0.0413,0.0459,0.0459,0.0459,0.0459,0.0603,0.0609,0.0615,0.0658,0,0,0.0634,0.0636,0,0,0,0,0,0,0,0,0.0245,0.0253,0.0323,0.0328,0.0334,0.0421,0.0425,0.0497,0.0459,0.041,0.0459,0.0458,0.0548,0.0559,0.0579,0.0664,0.0671,0.0634,0.0638,0.0641,0.0642,0,0,0,0,0,0,0,0.024,0.0249,0.0335,0.0325,0.0332,0.037,0.038,0.0439,0.0478,0.0415,0.0419,0.0436,0.0551,0.0573,0.0583,0.0673,0.0634,0.0639,0.0643,0.0646,0.0822,0.0823,0,0,0,0,0,0,0.0225,0.0244,0.0331,0.0339,0.029,0.0372,0.0383,0.0392,0.0477,0.049,0.0436,0.0437,0.0562,0.0575,0.0588,0.0633,0.0641,0.0646,0.065,0.0821,0.0822,0.0823,0,0,0,0,0,0,0.0222,0.0231,0.0326,0.0296,0.0311,0.0374,0.0384,0.0394,0.0419,0.0493,0.0506,0.045,0.0563,0.058,0.0653,0.064,0.0649,0.0655,0.082,0.0821,0.0823,0.0731,0,0,0,0,0,0,0.0218,0.0229,0.0225,0.0294,0.0312,0.0364,0.0385,0.0397,0.043,0.0434,0.051,0.0523,0.0564,0.0643,0.0659,0.0648,0.0659,0.0818,0.082,0.0822,0.0733,0.0729,0.0726,0,0,0,0,0,0.0213,0.0201,0.0224,0.0235,0.0306,0.0365,0.0377,0.042,0.0431,0.0441,0.0502,0.0521,0.0666,0.065,0.0667,0.0658,0.0817,0.082,0.0822,0.0734,0.073,0.0726,0,0,0,0,0,0,0.0149,0.0207,0.0234,0.024,0.03,0.0373,0.0383,0.0419,0.0475,0.0476,0.0544,0.0562,0.0622,0.0664,0.0644,0.0719,0.0741,0.0747,0.0668,0.0665,0.0662,0.0629,0.0664,0,0,0,0,0,0.0134,0.0143,0.0215,0.0225,0.0248,0.0318,0.0345,0.0378,0.044,0.0463,0.0524,0.0587,0.0646,0.0673,0.0737,0.078,0.0804,0.0786,0.0782,0.0779,0.0768,0.0811,0.081,0.0831,0.0831,0.0831,0,0,0.0119,0.0149,0.0158,0.0213,0.0258,0.0274,0.0332,0.037,0.0385,0.0472,0.0512,0.0586,0.0661,0.0709,0.0737,0.0738,0.0784,0.0782,0.0778,0.0769,0.0813,0.0811,0.0809,0.0832,0.0832,0.0832,0,0,0.0076,0.0115,0.01,0.0138,0.0197,0.0244,0.0253,0.0332,0.0365,0.0424,0.0489,0.0556,0.0646,0.0693,0.0727,0.0748,0.0774,0.0769,0.0712,0.0755,0.0752,0.075,0.0755,0.0754,0.0755,0.0755,0.0755,0,0.005,0.0037,0.0109,0.01,0.0122,0.0223,0.0213,0.0266,0.0361,0.039,0.0422,0.0566,0.063,0.0683,0.069,0.0734,0.0755,0.0712,0.0745,0.0745,0.0744,0.075,0.075,0.0751,0.0751,0.0752,0.0752,0,-0.0001,-0.0017,-0.002,-0.0,0.0041,0.0051,0.0136,0.0184,0.0244,0.0299,0.0384,0.0489,0.0565,0.06,0.065,0.0684,0.0698,0.074,0.0741,0.0736,0.0743,0.0745,0.0745,0.0746,0.0747,0.0748,0,0,-0.0047,-0.0062,-0.0061,-0.0085,-0.0018,0.0009,0.0048,0.0111,0.0136,0.0234,0.0268,0.0383,0.0449,0.0495,0.0577,0.0618,0.0631,0.0668,0.0672,0.0646,0.0697,0.0762,0.077,0.068,0.068,0.0681,0.0692,0,-0.0114,-0.0191,-0.0148,-0.0186,-0.0221,-0.0113,-0.0082,-0.0005,0.008,0.0145,0.0256,0.0326,0.0405,0.0449,0.0501,0.0621,0.0637,0.0622,0.073,0.0732,0.077,0.0776,0.0669,0.0676,0.0695,0.0695,0.0695,0,-0.0179,-0.023,-0.031,-0.0313,-0.0305,-0.0293,-0.0212,-0.017,-0.005,0.002,0.011,0.0212,0.0304,0.0372,0.0517,0.0505,0.0579,0.0659,0.0662,0.0756,0.0803,0.0695,0.068,0.0699,0.0699,0.0698,0.0698,0,-0.0284,-0.0328,-0.0406,-0.041,-0.0393,-0.0379,-0.0335,-0.0222,-0.0175,-0.0062,-0.001,0.0115,0.019,0.0308,0.0487,0.0496,0.0643,0.0672,0.0785,0.0788,0.0736,0.0735,0.0739,0.0739,0.0739,0.0739,0.0739,0,-0.0403,-0.0452,-0.0468,-0.052,-0.0554,-0.0489,-0.0475,-0.0398,-0.0295,-0.0239,-0.0093,-0.0009,0.0184,0.0312,0.0447,0.0632,0.0604,0.077,0.0805,0.0702,0.0699,0.076,0.0763,0.0739,0.0739,0.0739,0.0739,0,-0.0524,-0.0549,-0.0627,-0.0634,-0.0626,-0.0646,-0.0568,-0.0542,-0.0434,-0.0354,-0.0321,-0.0116,0.0075,0.0263,0.0467,0.0586,0.075,0.0809,0.0666,0.0686,0.0861,0.0858,0.0916,0.0918,0.092,0.0922,0.0924,0,-0.0587,-0.0661,-0.0709,-0.0738,-0.0747,-0.0752,-0.0733,-0.0629,-0.0581,-0.0397,-0.0361,-0.0163,0.0031,0.0348,0.0555,0.0772,0.0803,0.0803,0.0819,0.0855,0.0883,0.0877,0.0872,0.0685,0.0685,0.0684,0.0684,0,-0.0696,-0.0716,-0.0786,-0.0856,-0.087,-0.0872,-0.0836,-0.0821,-0.0674,-0.0566,-0.0369,-0.0201,0.0113,0.0356,0.0629,0.0741,0.0769,0.0807,0.0874,0.0688,0.0649,0.0673,0.0673,0.068,0.0681,0.0681,0.0681,0.0681,-0.0723,-0.0801,-0.0881,-0.0942,-0.0964,-0.0967,-0.0949,-0.0882,-0.079,-0.06,-0.0435,-0.0168,0.0068,0.0463,0.0647,0.0793,0.0819,0.0833,0.0828,0.0826,0.0828,0.0799,0.0855,0.0856,0.0857,0.0858,0.0859,0,-0.0749,-0.0851,-0.0934,-0.1008,-0.1044,-0.1023,-0.0981,-0.0949,-0.0835,-0.0635,-0.0427,-0.0163,0.0124,0.0385,0.0611,0.0786,0.0733,0.0802,0.0682,0.0684,0.0686,0.0677,0.0666,0.0666,0.0667,0.0667,0,0,-0.0778,-0.0885,-0.096,-0.105,-0.1082,-0.1096,-0.1064,-0.0995,-0.0866,-0.066,-0.0447,-0.0201,0.013,0.0256,0.0438,0.0561,0.0576,0.0557,0.0681,0.0513,0.0514,0.0662,0.0647,0,0,0,0,0]}],[{"header":{"parameterUnit":"m.s-1","parameterCategory":2,"la1":30.2991,"la2":30.254,"lo1":-89.0895,"lo2":-89.0444,"dy":0.0017,"dx":0.0017,"nx":28,"ny":28,"refTime":"2023-11-21T09:00:00:Z","depth":"4","parameterNumber":2,"parameterNumberName":"U-component_of_CURRENTS"},"data":[0,0,0,0,0,0,0,0,0,0,0,0,0,0,0,0,0,0,0,0,0,0,0,0,0,0,0,0,0,0,0,0,0,0,0,0,0,0,0,0,0,0,0,0,0,0,0,0,0,0,0,0,0,0,0,0,0,0,-0.0977,-0.0976,0,-0.0962,-0.0962,-0.0961,-0.0993,-0.0994,-0.0994,-0.0995,-0.101,-0.101,-0.1009,0,0,0,0,0,0,0,0,0,0,0,0,0,-0.0936,-0.0937,-0.0977,-0.0976,-0.0976,-0.0962,-0.0962,-0.0961,-0.0993,-0.0994,-0.0995,-0.0996,-0.101,-0.101,-0.1009,0,0,0,0,0,0,0,0,0,0,0,0,0,-0.0942,-0.0937,-0.0977,-0.0988,-0.0989,-0.0962,-0.0962,-0.0961,-0.0992,-0.0994,-0.0995,-0.0996,-0.101,-0.101,-0.1009,-0.0981,0,0,-0.1008,-0.1007,0,0,0,0,0,0,0,0,-0.0942,-0.0944,-0.0987,-0.0987,-0.0988,-0.0979,-0.0952,-0.0969,-0.0992,-0.0993,-0.0995,-0.0997,-0.1,-0.1001,-0.0997,-0.0981,-0.0982,-0.1008,-0.1007,-0.1007,-0.1007,0,0,0,0,0,0,0,-0.0942,-0.0944,-0.0973,-0.0986,-0.0987,-0.0961,-0.0964,-0.0955,-0.0992,-0.0993,-0.0995,-0.099,-0.1001,-0.0998,-0.0998,-0.0982,-0.1008,-0.1007,-0.1007,-0.1006,-0.1094,-0.1097,0,0,0,0,0,0,-0.0944,-0.0944,-0.0973,-0.0972,-0.0965,-0.0961,-0.0965,-0.0982,-0.0991,-0.0993,-0.0989,-0.0991,-0.0998,-0.0999,-0.0999,-0.1095,-0.1007,-0.1006,-0.1006,-0.1092,-0.1095,-0.1098,0,0,0,0,0,0,-0.0943,-0.0947,-0.0974,-0.0955,-0.0956,-0.0961,-0.0979,-0.0981,-0.1012,-0.0987,-0.099,-0.1021,-0.0999,-0.0999,-0.103,-0.1091,-0.1006,-0.1006,-0.1089,-0.1093,-0.1096,-0.1205,0,0,0,0,0,0,-0.0942,-0.0948,-0.097,-0.0956,-0.0957,-0.0984,-0.0978,-0.098,-0.1003,-0.1008,-0.1015,-0.1016,-0.1,-0.1032,-0.103,-0.1089,-0.1005,-0.1085,-0.109,-0.1095,-0.1198,-0.1213,-0.1225,0,0,0,0,0,-0.0941,-0.0957,-0.0972,-0.0975,-0.0986,-0.0985,-0.0984,-0.0991,-0.1004,-0.1023,-0.1037,-0.1018,-0.1063,-0.1032,-0.103,-0.1091,-0.1083,-0.1089,-0.1095,-0.1192,-0.121,-0.1224,0,0,0,0,0,0,-0.0944,-0.0961,-0.0977,-0.0997,-0.1006,-0.099,-0.1003,-0.101,-0.1034,-0.1047,-0.1035,-0.1037,-0.1093,-0.1073,-0.104,-0.1134,-0.1076,-0.1082,-0.1152,-0.1168,-0.1181,-0.1193,-0.1005,0,0,0,0,0,-0.0956,-0.0982,-0.0987,-0.1008,-0.1018,-0.1021,-0.1025,-0.1032,-0.1041,-0.1054,-0.1068,-0.1086,-0.1108,-0.1124,-0.1133,-0.1169,-0.1149,-0.1213,-0.1227,-0.1238,-0.1249,-0.1272,-0.1288,-0.1118,-0.1118,-0.1117,0,0,-0.0957,-0.0973,-0.0986,-0.1011,-0.1021,-0.1053,-0.1029,-0.1047,-0.1088,-0.1049,-0.1124,-0.1128,-0.1128,-0.1181,-0.1206,-0.1177,-0.1276,-0.1245,-0.1255,-0.126,-0.128,-0.1296,-0.1311,-0.1122,-0.1121,-0.112,0,0,-0.0971,-0.0998,-0.1028,-0.105,-0.1074,-0.1081,-0.1099,-0.1115,-0.1144,-0.1193,-0.1193,-0.1229,-0.1263,-0.1278,-0.1287,-0.1374,-0.1344,-0.1396,-0.1473,-0.1496,-0.151,-0.1522,-0.1515,-0.1525,-0.1404,-0.1405,-0.1405,0,-0.0976,-0.1026,-0.1033,-0.1075,-0.1102,-0.1108,-0.1152,-0.1178,-0.1209,-0.1242,-0.1237,-0.1314,-0.1308,-0.1376,-0.1418,-0.1404,-0.1407,-0.141,-0.1513,-0.1524,-0.1534,-0.1524,-0.1534,-0.1411,-0.141,-0.1409,-0.1409,0,-0.0998,-0.1069,-0.1089,-0.116,-0.1185,-0.122,-0.1256,-0.1301,-0.1338,-0.1365,-0.1447,-0.1443,-0.1488,-0.1505,-0.1489,-0.1577,-0.1551,-0.1523,-0.1468,-0.1558,-0.1541,-0.155,-0.1419,-0.1417,-0.1415,-0.1414,0,0,-0.0952,-0.1083,-0.1099,-0.1164,-0.1238,-0.1255,-0.134,-0.1407,-0.1458,-0.1517,-0.1583,-0.1643,-0.1648,-0.1659,-0.1651,-0.1677,-0.1744,-0.1649,-0.1647,-0.1634,-0.1791,-0.1648,-0.1642,-0.1746,-0.1749,-0.1751,-0.1748,0,-0.0982,-0.1088,-0.1142,-0.1256,-0.1319,-0.1369,-0.1439,-0.1501,-0.1549,-0.1614,-0.165,-0.1706,-0.1707,-0.1725,-0.1764,-0.1741,-0.1774,-0.1747,-0.1713,-0.1711,-0.1567,-0.165,-0.1758,-0.1754,-0.1756,-0.1757,-0.1758,0,-0.0988,-0.1074,-0.1186,-0.1331,-0.1358,-0.1419,-0.1517,-0.1579,-0.1669,-0.1708,-0.1784,-0.18,-0.187,-0.1835,-0.1885,-0.1876,-0.186,-0.1836,-0.1835,-0.1669,-0.1584,-0.1648,-0.1772,-0.1771,-0.177,-0.1769,-0.1768,0,-0.0944,-0.1104,-0.12,-0.1247,-0.1395,-0.1455,-0.1524,-0.1615,-0.1673,-0.1767,-0.1808,-0.1889,-0.1917,-0.1941,-0.1918,-0.1917,-0.1934,-0.1909,-0.1768,-0.1756,-0.1834,-0.1821,-0.195,-0.195,-0.195,-0.195,-0.195,0,-0.0951,-0.1036,-0.1195,-0.1251,-0.1348,-0.1451,-0.1545,-0.1612,-0.1716,-0.1775,-0.1858,-0.1892,-0.1951,-0.1963,-0.1945,-0.1877,-0.1962,-0.1795,-0.1756,-0.1879,-0.1872,-0.1839,-0.1826,-0.195,-0.195,-0.195,-0.195,0,-0.0893,-0.1006,-0.1117,-0.1285,-0.1337,-0.1396,-0.1555,-0.1617,-0.1721,-0.1792,-0.183,-0.1919,-0.1922,-0.1939,-0.1936,-0.1882,-0.1834,-0.1786,-0.1907,-0.1872,-0.1636,-0.1629,-0.1638,-0.1633,-0.1629,-0.1626,-0.1623,0,-0.0871,-0.0931,-0.1101,-0.1164,-0.125,-0.1369,-0.1448,-0.1594,-0.1653,-0.1782,-0.1799,-0.1852,-0.1883,-0.1767,-0.1801,-0.1747,-0.1723,-0.1699,-0.1692,-0.1648,-0.161,-0.161,-0.1608,-0.1617,-0.1615,-0.1614,-0.1613,0,-0.082,-0.0877,-0.096,-0.1087,-0.1189,-0.1296,-0.1421,-0.1454,-0.16,-0.1717,-0.1715,-0.1707,-0.1692,-0.1671,-0.1632,-0.1599,-0.1718,-0.1656,-0.1664,-0.1658,-0.1621,-0.1588,-0.1591,-0.1599,-0.1601,-0.1602,-0.1603,0,-0.0752,-0.0777,-0.0881,-0.0982,-0.1107,-0.1184,-0.127,-0.1351,-0.1423,-0.1568,-0.1557,-0.1599,-0.167,-0.1592,-0.1562,-0.151,-0.149,-0.145,-0.1469,-0.1486,-0.1434,-0.1365,-0.1244,0,0,0,0,0,-0.0679,-0.0698,-0.0781,-0.0886,-0.1008,-0.1073,-0.1232,-0.1322,-0.1459,-0.1415,-0.1483,-0.1458,-0.1416,-0.1444,-0.1353,-0.1485,-0.1491,-0.1375,-0.1456,-0.152,-0.1537,-0.1489,0,0,0,0,0,0,-0.0633,-0.0679,-0.0725,-0.078,-0.0834,-0.0949,-0.1039,-0.1143,-0.1132,-0.1267,-0.1245,-0.1351,-0.1323,-0.1417,-0.1308,-0.1316,-0.1336,-0.1414,-0.141,-0.1511,-0.1526,-0.1539,-0.1496,0,0,0,0,0]},{"header":{"parameterUnit":"m.s-1","parameterCategory":2,"la1":30.2991,"la2":30.254,"lo1":-89.0895,"lo2":-89.0444,"dy":0.0017,"dx":0.0017,"nx":28,"ny":28,"refTime":"2023-11-21T09:00:00:Z","depth":"4","parameterNumber":3,"parameterNumberName":"V-component_of_CURRENTS"},"data":[0,0,0,0,0,0,0,0,0,0,0,0,0,0,0,0,0,0,0,0,0,0,0,0,0,0,0,0,0,0,0,0,0,0,0,0,0,0,0,0,0,0,0,0,0,0,0,0,0,0,0,0,0,0,0,0,0,0,-0.0461,-0.0461,0,-0.0504,-0.0505,-0.0505,-0.055,-0.0551,-0.0551,-0.0552,-0.0603,-0.0604,-0.0605,0,0,0,0,0,0,0,0,0,0,0,0,0,-0.0432,-0.0433,-0.0461,-0.0461,-0.0462,-0.0504,-0.0505,-0.0505,-0.055,-0.0551,-0.0551,-0.0552,-0.0603,-0.0604,-0.0605,0,0,0,0,0,0,0,0,0,0,0,0,0,-0.0458,-0.0433,-0.0461,-0.0488,-0.0491,-0.0504,-0.0505,-0.0506,-0.055,-0.0551,-0.0551,-0.0552,-0.0602,-0.0604,-0.0605,-0.0598,0,0,-0.0609,-0.061,0,0,0,0,0,0,0,0,-0.0457,-0.0459,-0.0484,-0.0486,-0.0489,-0.0521,-0.0513,-0.0537,-0.055,-0.0529,-0.0552,-0.0552,-0.0575,-0.0579,-0.0587,-0.0601,-0.0603,-0.0609,-0.061,-0.0611,-0.0611,0,0,0,0,0,0,0,-0.0455,-0.0458,-0.0479,-0.0484,-0.0488,-0.0503,-0.0508,-0.0518,-0.0548,-0.0531,-0.0534,-0.0536,-0.0577,-0.0585,-0.0588,-0.0604,-0.0609,-0.061,-0.0611,-0.0612,-0.0589,-0.0587,0,0,0,0,0,0,-0.0445,-0.0456,-0.0478,-0.048,-0.0473,-0.0503,-0.0508,-0.0511,-0.0548,-0.0554,-0.0536,-0.0538,-0.0583,-0.0587,-0.059,-0.0574,-0.0611,-0.0612,-0.0613,-0.059,-0.0588,-0.0587,0,0,0,0,0,0,-0.0444,-0.0447,-0.0476,-0.0468,-0.0473,-0.0503,-0.0506,-0.0512,-0.0532,-0.0552,-0.0558,-0.055,-0.0584,-0.0588,-0.0591,-0.0577,-0.0613,-0.0614,-0.0592,-0.059,-0.0588,-0.0548,0,0,0,0,0,0,-0.0443,-0.0446,-0.0448,-0.0467,-0.0473,-0.0495,-0.0505,-0.0512,-0.0531,-0.0535,-0.0566,-0.0571,-0.0584,-0.0589,-0.0593,-0.0579,-0.0615,-0.0594,-0.0591,-0.0588,-0.0551,-0.0545,-0.0539,0,0,0,0,0,-0.0442,-0.045,-0.0448,-0.0451,-0.0474,-0.0495,-0.05,-0.0524,-0.0531,-0.0544,-0.0547,-0.0571,-0.0574,-0.0589,-0.0594,-0.058,-0.0595,-0.0592,-0.0589,-0.0554,-0.0546,-0.0539,0,0,0,0,0,0,-0.0451,-0.0455,-0.0454,-0.0466,-0.048,-0.0502,-0.0515,-0.0526,-0.054,-0.0543,-0.0559,-0.0564,-0.0561,-0.0571,-0.0586,-0.0562,-0.0586,-0.0584,-0.0558,-0.0551,-0.0545,-0.0549,-0.0616,0,0,0,0,0,-0.0447,-0.0452,-0.046,-0.0472,-0.0475,-0.0492,-0.0504,-0.0519,-0.0531,-0.054,-0.055,-0.0552,-0.0548,-0.0551,-0.0556,-0.0546,-0.0522,-0.0537,-0.0531,-0.0526,-0.0529,-0.0469,-0.0458,-0.0576,-0.0576,-0.0576,0,0,-0.0459,-0.0459,-0.0465,-0.0473,-0.0484,-0.0491,-0.0503,-0.0524,-0.0525,-0.0541,-0.0542,-0.054,-0.0542,-0.0528,-0.0527,-0.0537,-0.0472,-0.0522,-0.0518,-0.0524,-0.0464,-0.0453,-0.0442,-0.0574,-0.0575,-0.0575,0,0,-0.0481,-0.0477,-0.0485,-0.0488,-0.0498,-0.0501,-0.0506,-0.052,-0.0523,-0.0519,-0.052,-0.0508,-0.051,-0.0501,-0.0497,-0.0462,-0.0446,-0.0456,-0.043,-0.037,-0.0359,-0.035,-0.0274,-0.0259,-0.0449,-0.0449,-0.0449,0,-0.0493,-0.0502,-0.0495,-0.0497,-0.0502,-0.0503,-0.0515,-0.051,-0.0521,-0.0509,-0.0517,-0.0487,-0.0497,-0.0465,-0.0448,-0.0451,-0.0402,-0.0459,-0.0362,-0.0353,-0.0344,-0.0269,-0.0252,-0.0447,-0.0447,-0.0447,-0.0447,0,-0.0524,-0.0522,-0.0528,-0.0522,-0.0522,-0.0538,-0.0521,-0.0518,-0.0511,-0.0494,-0.0464,-0.0458,-0.0439,-0.043,-0.0431,-0.037,-0.0347,-0.0364,-0.0382,-0.033,-0.0253,-0.0237,-0.0443,-0.0444,-0.0445,-0.0446,0,0,-0.0575,-0.0554,-0.0559,-0.0549,-0.0538,-0.0543,-0.0527,-0.051,-0.0492,-0.0471,-0.0441,-0.0415,-0.0394,-0.0388,-0.0377,-0.0325,-0.0217,-0.0311,-0.0309,-0.0239,-0.0052,-0.0095,-0.0081,-0.0205,-0.0202,-0.02,-0.0012,0,-0.0606,-0.0618,-0.0595,-0.0595,-0.0594,-0.0569,-0.0553,-0.0526,-0.0494,-0.0458,-0.0418,-0.0388,-0.0379,-0.0367,-0.0307,-0.0251,-0.0175,-0.0265,-0.0111,-0.0107,-0.0155,-0.0065,-0.0193,0.0,0.0004,0.0007,0.0009,0,-0.0644,-0.0642,-0.0657,-0.0618,-0.0616,-0.0612,-0.0579,-0.0563,-0.0495,-0.0464,-0.0406,-0.0369,-0.0291,-0.0301,-0.0143,-0.0191,-0.0113,-0.0063,-0.0055,-0.0105,-0.0121,-0.0069,0.0038,0.0036,0.0034,0.0032,0.003,0,-0.069,-0.0677,-0.0692,-0.0685,-0.0648,-0.0644,-0.0627,-0.0571,-0.0544,-0.0465,-0.0425,-0.0327,-0.0278,-0.0169,-0.0063,-0.0083,0.0112,0.0091,0.0137,0.0136,0.0098,0.0085,0.0217,0.0217,0.0216,0.0216,0.0215,0,-0.0724,-0.0729,-0.0716,-0.0719,-0.0725,-0.0681,-0.0668,-0.0632,-0.0568,-0.0521,-0.043,-0.0373,-0.024,-0.012,-0.0027,0.0112,0.0153,0.0164,0.0184,0.0115,0.0102,0.0112,0.0097,0.0223,0.0221,0.022,0.0219,0,-0.076,-0.076,-0.0764,-0.0745,-0.0745,-0.0749,-0.071,-0.0688,-0.0615,-0.0553,-0.0525,-0.0377,-0.022,-0.0082,0.0099,0.0153,0.0279,0.0317,0.026,0.027,0.0264,0.0249,0.0407,0.0407,0.0407,0.0407,0.0407,0,-0.0777,-0.079,-0.0799,-0.0812,-0.0806,-0.0804,-0.0802,-0.0735,-0.0699,-0.0559,-0.0527,-0.0358,-0.0256,-0.0004,0.0121,0.0322,0.0321,0.0401,0.0312,0.0281,0.0285,0.027,0.0256,0.0407,0.0407,0.0407,0.0407,0,-0.0801,-0.0817,-0.0823,-0.086,-0.0869,-0.0868,-0.0849,-0.0823,-0.0729,-0.066,-0.0511,-0.0368,-0.0188,-0.0014,0.0145,0.0273,0.0352,0.0402,0.0402,0.0319,0.0283,0.0284,0.027,0.0407,0.0407,0.0407,0.0407,0,-0.0822,-0.0844,-0.0869,-0.0884,-0.0914,-0.0917,-0.0899,-0.083,-0.0778,-0.0616,-0.0572,-0.0365,-0.0237,-0.0037,0.0104,0.0231,0.0245,0.026,0.0267,0.0269,0.0142,0.0071,0.0172,0,0,0,0,0,-0.0834,-0.0859,-0.0887,-0.0909,-0.0938,-0.0949,-0.092,-0.0886,-0.0796,-0.0702,-0.063,-0.0464,-0.0224,-0.0108,0.0012,0.0078,0.0248,0.0219,0.0262,0.0409,0.0409,0.0275,0,0,0,0,0,0,-0.0845,-0.0886,-0.089,-0.0921,-0.0943,-0.0968,-0.0953,-0.0892,-0.0822,-0.0717,-0.0585,-0.0472,-0.024,-0.0302,0.0001,0.0045,0.008,0.0348,0.035,0.0409,0.0409,0.0409,0.0272,0,0,0,0,0]}]]